Location: G�lc�k
(36.6234°N, 30.3510°E)
Time: 01:35:02
(UTC+00:00)

Daily predictions for brighter satellites

Satellite Brightness Start Highest point End
(mag) Time Altitude Azimuth Time Altitude Azimuth Time Altitude Azimuth
BREEZE-M DEB (TANK) 4.3 00:34:58 72° NE 00:34:58 72° NE 00:50:47 10° ENE
ADEOS II 4.5 00:36:32 10° N 00:37:24 15° N 00:37:24 15° N
IDEFIX/ARIANE 42P 4.3 00:38:50 10° NNE 00:41:36 29° NE 00:41:36 29° NE
Cosmos 2360 Rocket 3.9 00:51:23 25° ESE 00:52:16 26° ESE 00:56:51 10° NE
Cosmos 1980 Rocket 4.2 01:05:32 18° NNW 01:05:32 18° NNW 01:07:15 10° N
CZ-2C R/B 4.5 01:04:19 10° NE 01:08:36 26° E 01:11:51 14° SE
Cosmos 2322 Rocket 2.5 01:12:29 62° NE 01:12:29 62° NE 01:17:16 10° NNE
Cosmos 1898 Rocket 4.2 01:14:21 10° N 01:19:30 53° ENE 01:24:39 10° SE
SL-16 R/B 2.6 01:24:46 53° N 01:24:46 53° N 01:29:14 10° NNE
Meteor 1-27 Rocket 4.2 01:22:35 40° SSE 01:24:32 61° E 01:30:20 10° NNE
Cosmos 1727 Rocket 4.0 01:24:38 52° SSE 01:26:16 78° E 01:32:35 10° N
X-37B 3.6 01:32:11 16° E 01:32:11 16° E 01:32:58 10° E
Cosmos 2237 4.4 01:31:38 54° SSE 01:32:46 67° ESE 01:38:26 10° NNE
IRIDIUM 104 4.3 01:29:13 10° N 01:34:27 81° E 01:35:00 70° SSE
Cosmos 841 Rocket 3.5 01:38:23 63° SSE 01:39:06 75° ESE 01:44:22 10° NNE
Cosmos 1937 Rocket 4.0 01:34:03 10° N 01:39:07 56° ENE 01:44:09 10° SSE
Cosmos 2219 Rocket 4.4 01:36:01 10° SSE 01:40:19 23° E 01:44:38 10° NE
Cosmos 2208 Rocket 4.3 01:41:30 40° SSE 01:43:13 64° ESE 01:48:22 10° NNE
IRIDIUM 114 4.1 01:38:21 10° N 01:43:36 82° W 01:44:07 72° SSW
Cosmos 1763 Rocket 4.1 01:45:12 42° NW 01:45:12 42° NW 01:49:20 10° N
Cosmos 1814 Rocket 4.3 01:43:22 40° S 01:45:08 66° ESE 01:50:22 10° NNE
USA 267 3.8 01:42:10 10° NNE 01:48:13 42° NW 01:49:37 37° WNW
ADEOS Rocket 4.2 01:41:54 10° SE 01:48:15 45° ENE 01:54:00 10° N
Cosmos 1536 3.2 01:47:27 10° N 01:51:29 63° E 01:55:30 10° SSE
USA 32 4.0 01:46:43 10° N 01:51:59 80° E 01:57:14 10° S
ARIANE 5 R/B 4.2 01:48:08 10° NNW 01:50:05 19° NNW 01:50:05 19° NNW
IRIDIUM 103 4.2 01:47:33 10° N 01:52:44 67° W 01:53:14 62° WSW
Cosmos 1707 Rocket 4.1 01:55:16 45° NNW 01:55:16 45° NNW 01:58:31 10° N
DEBRIS 3.1 01:57:32 51° N 01:57:53 55° NE 02:03:35 10° ESE
Cosmos 540 Rocket 3.3 01:59:02 55° SW 02:00:01 69° WNW 02:05:11 10° NNE
COSMOS 2428 4.5 01:57:37 10° SSE 02:02:33 31° ESE 02:07:30 10° NE
ERS-2 2.9 02:01:09 10° SSE 02:04:42 52° ENE 02:08:16 10° N
MSX 4.1 01:59:17 10° N 02:04:43 43° WNW 02:05:30 41° W
CZ-4B R/B 3.8 02:02:22 10° SE 02:04:58 23° ENE 02:07:37 10° NNE
Cosmos 44 Rocket 3.6 02:06:04 43° WNW 02:06:10 43° NW 02:10:47 10° NNE
Gbstr 26 Del rocket 4.3 02:03:40 17° NW 02:10:08 70° SW 02:17:06 10° SE
ATLAS 2AS CENTAUR R/B 3.2 02:03:19 10° NNW 02:10:38 63° NE 02:17:18 10° SE
Cosmos 2333 Rocket 3.1 02:05:56 10° S 02:11:26 49° ESE 02:16:58 10° NNE
Cosmos 990 Rocket 4.3 02:08:29 10° NNW 02:13:22 41° WSW 02:18:14 10° S
Cosmos 1733 Rocket 3.0 02:09:00 10° N 02:13:22 84° E 02:17:39 10° S
Cosmos 2173 Rocket 4.0 02:07:52 10° N 02:14:16 87° E 02:20:38 10° S
PAYLOAD A 3.8 02:10:32 10° N 02:15:08 58° WNW 02:17:05 33° SW
Landsat 5 3.7 02:11:46 10° S 02:16:10 53° W 02:20:33 10° NNW
Cosmos 2322 3.9 02:10:43 10° SSW 02:16:20 71° ESE 02:21:58 10° NNE
Cosmos 1743 3.7 02:14:18 10° N 02:18:00 46° E 02:21:40 10° SSE
ADEOS 3.9 02:13:07 10° NNE 02:18:19 65° ESE 02:23:29 10° S
Meteor 2-20 4.4 02:13:32 10° S 02:19:39 89° W 02:25:48 10° N
Cosmos 1570 Rocket 4.3 02:18:01 35° WSW 02:19:42 47° WNW 02:24:52 10° N
USA 234 3.7 02:13:50 10° ESE 02:20:15 61° NE 02:26:40 10° NW
IDEFIX/ARIANE 42P 4.1 02:19:32 10° NNW 02:22:24 18° NW 02:22:24 18° NW
SL-4 R/B 4.1 02:21:55 17° NW 02:23:23 19° NNW 02:26:46 10° NNE
PSLV R/B 3.8 02:23:32 10° N 02:27:29 42° WNW 02:28:45 32° WSW
Cosmos 1862 Rocket 3.6 02:26:21 21° SSW 02:29:03 52° W 02:33:19 10° N
H-2A R/B 2.7 02:30:01 10° SSW 02:33:59 34° W 02:38:04 10° NNW
Cosmos 2333 4.2 02:28:43 10° SSW 02:34:30 79° WNW 02:40:18 10° NNE
Cosmos 2360 Rocket 2.7 02:33:12 24° WSW 02:36:00 39° WNW 02:41:17 10° N
SAR-Lupe-4 4.2 02:34:25 10° SSE 02:37:56 58° ENE 02:41:29 10° N
FENGYUN 3A 3.8 02:33:59 10° NNE 02:39:24 80° ESE 02:44:49 10° S
ALOS 2.3 02:35:19 10° NNE 02:40:00 81° E 02:44:39 10° S
Meteor 1-19 Rocket 4.4 02:36:28 10° S 02:41:54 75° E 02:47:30 10° NNE
Cosmos 1689 Rocket 4.4 02:39:41 10° SE 02:42:15 27° ENE 02:44:50 10° NNE
Meteor 1-18 Rocket 4.3 02:36:59 10° S 02:42:31 82° E 02:48:06 10° N
Cosmos 2016 Rocket 3.9 02:39:53 10° N 02:45:59 78° W 02:52:04 10° S
CZ-2C R/B 3.2 02:42:09 10° N 02:46:47 34° WNW 02:51:14 11° SW
ATLAS CENTAUR R/B 4.3 02:44:03 10° NNW 02:49:42 24° NNE 02:52:41 10° ENE
Cosmos 372 Rocket 3.9 02:45:21 10° NNW 02:50:26 65° WSW 02:55:27 10° S
Cosmos 1975 3.8 02:46:55 10° N 02:50:49 51° E 02:54:40 10° SSE
Cosmos 2061 Rocket 4.0 02:46:08 10° N 02:52:32 71° W 02:58:53 10° S
Cosmos 2233 Rocket 4.5 02:49:39 10° N 02:55:44 64° E 03:01:50 10° SSE
Cosmos 2322 Rocket 3.9 02:54:21 13° WNW 02:56:15 15° NW 02:59:27 10° NNW
SAR-Lupe-1 3.9 02:53:25 10° S 02:56:59 81° WSW 03:00:34 10° NNW
Cosmos 1844 Rocket 2.7 02:52:07 10° NNW 02:57:42 67° WSW 03:03:18 10° S
Cosmos 1515 3.7 02:56:06 10° SSW 02:59:47 53° W 03:03:31 10° N
Cosmos 1484 Rocket 3.0 02:56:24 10° N 03:00:17 50° WNW 03:04:10 10° SSW
Cosmos 1844 3.6 03:00:44 10° NNW 03:06:16 70° WSW 03:11:46 10° SSE
X-37B 1.9 03:04:30 15° W 03:06:24 24° SW 03:09:03 10° SSE
Okean 1 4.0 03:03:25 10° SW 03:07:05 33° WNW 03:10:46 10° NNW
Cosmos 1864 Rocket 4.5 03:01:16 10° NNW 03:07:23 62° W 03:13:25 10° S
COSMO-SKYMED 1 3.1 03:03:29 10° SSE 03:07:45 63° ENE 03:12:03 10° N
Intercosmos 25 4.1 03:04:58 10° SW 03:08:25 26° W 03:11:16 10° NNW
Hubble Space Telescope 2.9 03:05:44 10° SSW 03:08:34 18° SSE 03:11:23 10° ESE
Cosmos 1725 Rocket 4.0 03:02:30 10° NNW 03:08:36 62° W 03:14:39 10° S
Meteor 2-9 Rocket 4.1 03:06:41 10° N 03:12:08 86° W 03:17:27 10° S
Meteor 1-31 Rocket 3.1 03:09:29 10° N 03:13:07 42° WNW 03:16:47 10° SW
Cosmos 1437 Rocket 4.0 03:11:24 10° WSW 03:14:17 20° WNW 03:17:11 10° NNW
Cosmos 836 Rocket 4.5 03:09:13 10° SSW 03:14:21 64° WNW 03:19:32 10° NNE
Cosmos 2298 Rocket 4.1 03:09:29 10° NNW 03:14:42 59° WSW 03:19:53 10° S
SJ-12 3.9 03:15:33 10° N 03:19:39 65° WNW 03:23:44 10° SSW
USA 281 4.5 03:17:07 10° NE 03:23:25 46° ESE 03:29:39 10° S
Cosmos 2219 Rocket 2.6 03:18:32 10° SW 03:23:54 44° WNW 03:29:19 10° N
Cosmos 1703 Rocket 4.1 03:21:26 10° SW 03:25:24 36° WNW 03:29:25 10° NNW
